sat.trackr.live / text

‹ back to catalog

STARLINK-31683

NORAD 59573 · 2024-076K

PAYLOAD ACTIVE UNKNOWN

§ Identity

Operator
Country
US
Launch date
2024-04-23
Launch site
AFETR
Launch vehicle
Mass (kg)
RCS (m²)

Purposes: comms

External: N2YO · Heavens-Above · Gunter

§ Orbital elements

Epoch: 2026-05-25T02:57:45.037152Z

Period
94.27 min
Inclination
42.9998°
Eccentricity
0.0001149
Mean motion
15.27575916 rev/d
Perigee alt
482.3 km
Apogee alt
483.8 km
Semi-major
6,861.2 km
B*
4.0101e-5
RAAN
297.2187°
Arg perigee
276.6297°
Mean anomaly
83.4424°
Rev number
11,819

§ Raw data

STARLINK-316831 59573U 24076K   26145.12343793  .00000842  00000+0  40101-4 0  99912 59573  42.9998 297.2187 0001149 276.6297  83.4424 15.27575916118195

JSON: /api/v1/satellites/59573 · /tle

For live sub-satellite position, see the globe view (requires WebGL).

§ Visibility from observer

Set your observer location to see the next 7 days of passes ≥ 10°. The values pass through the URL so the page stays shareable.

No JS? Fill the form by hand. The geolocation button needs JavaScript.